Zurück zum Katalog

SL-12 R/B(2)

AktivMEO
NORAD 27620·ROCKET BODY·🇷🇺 Russia

Gestartet Dec 25, 2002 von Baikonur Cosmodrome

Loading…

Nächste Überflüge (nächste 24 Stunden)

TLE

AktuellSource: Space-Track

Epoche: Sep 14, 2026, 06:20 UTC

1 27620U 02060D   26257.26424425 -.00000052  00000-0  00000-0 0  9994
2 27620  65.3471 311.5786 0004494 224.8754 137.1669  2.13448109184928

Verfolge SL-12 R/B(2) in Echtzeit mit AllMySat

Download on the App Store